FW3012 Weather Reports


time (UTC)temp
C
wind
direction
speed
KPH
gust
KPH
rain 1hr
cm
rain 24hr
cm
rain mn
cm
humidity
%
barometer
mb
20260507120414 29 293 8.0 20.9 0.00 0.00 0.00 23 992.7
20260507113042 27 293 11.3 24.1 0.00 0.00 0.00 29 993.0
20260507110042 28 315 16.1 32.2 0.00 0.00 0.00 26 993.1
20260507103042 29 315 6.4 16.1 0.00 0.00 0.00 27 993.0
20260507100042 29 315 6.4 16.1 0.00 0.00 0.00 25 993.1
20260507093042 28 315 6.4 16.1 0.00 0.00 0.00 27 993.2
20260507090041 28 293 4.8 16.1 0.00 0.00 0.00 29 993.5
20260507080453 27 293 4.8 12.9 0.00 0.00 0.00 34 993.7
20260507073414 26 270 3.2 11.3 0.00 0.00 0.00 39 993.8
20260507070041 25 270 3.2 11.3 0.00 0.00 0.00 41 993.9
20260507063041 23 270 3.2 9.7 0.00 0.00 0.00 45 993.9
20260507060041 22 293 3.2 9.7 0.00 0.00 0.00 47 993.7
20260507053041 21 293 3.2 11.3 0.00 0.00 0.00 49 993.6
20260507050041 20 270 4.8 14.5 0.00 0.00 0.00 50 993.8
20260507043041 18 293 9.7 16.1 0.00 0.00 0.00 52 993.4
20260507040041 17 293 6.4 14.5 0.00 0.00 0.00 56 993.3
20260507033041 15 203 1.6 6.4 0.00 0.00 0.00 61 993.2
20260507030041 13 0.0 3.2 0.00 0.00 0.00 67 993.1
20260507023041 12 180 1.6 4.8 0.00 0.00 0.00 71 992.9
20260507020046 11 158 1.6 8.0 0.00 0.00 0.00 71 992.7
20260507013041 13 293 3.2 9.7 0.00 0.00 0.00 64 992.6
20260507010040 14 293 4.8 9.7 0.00 0.00 0.00 60 992.4
20260507003101 15 293 3.2 6.4 0.00 0.00 0.00 58 992.4
20260507000101 16 293 4.8 9.7 0.00 0.00 0.00 56 992.3
20260506233041 16 293 3.2 6.4 0.00 0.00 0.00 54 992.2
20260506223041 17 293 3.2 6.4 0.00 0.00 0.00 50 992.1
20260506220040 18 293 3.2 6.4 0.00 0.00 0.00 51 992.1
20260506213121 18 270 3.2 9.7 0.00 0.00 0.00 51 992.1
20260506210413 17 293 1.6 6.4 0.00 0.00 0.00 51 992.1
20260506203041 18 293 1.6 6.4 0.00 0.00 0.00 51 992.1
20260506200041 17 0.0 4.8 0.00 0.00 0.00 52 992.0
20260506193041 17 0.0 3.2 0.00 0.00 0.00 53 992.0
20260506190413 17 0.0 3.2 0.00 0.00 0.00 54 992.0
20260506183041 17 0.0 3.2 0.00 0.00 0.00 54 992.0
20260506180041 17 0.0 0.0 0.00 0.00 0.00 54 991.9
20260506173101 18 0.0 0.0 0.00 0.00 0.00 51 991.7
20260506170041 20 0.0 0.0 0.00 0.00 0.00 47 991.6
20260506163101 22 0.0 1.6 0.00 0.00 0.00 42 991.4
20260506160041 25 315 1.6 6.4 0.00 0.00 0.00 38 991.2
20260506153041 25 315 4.8 11.3 0.00 0.00 0.00 34 991.1
20260506143121 25 293 1.6 6.4 0.00 0.00 0.00 35 991.3
20260506140041 26 0 1.6 8.0 0.00 0.00 0.00 30 991.3
20260506133040 26 315 3.2 11.3 0.00 0.00 0.00 30 991.3
20260506123101 26 315 6.4 16.1 0.00 0.00 0.00 30 991.6